Location: Koussan�
(15.2012°N, 12.5548°W)
Time: 22:31:41
(UTC+00:00)

FengYun 1-2 T - Visible Passes

Search period start: 01 March 2021 00:00
Search period end: 11 March 2021 00:00
Orbit: 846 x 881 km, 98.7° (Epoch: 01 March)

Date Brightness Start Highest point End Pass type
(mag) Time Alt. Az. Time Alt. Az. Time Alt. Az.
01 Mar 7.3 19:55:42 10° SW 19:59:22 18° W 20:03:04 10° WNW visible
02 Mar 7.0 19:47:09 10° SSW 19:51:23 22° W 19:55:38 10° NW visible
03 Mar 6.7 19:38:44 10° SSW 19:43:24 27° W 19:48:05 10° NW visible
04 Mar 6.0 06:35:33 10° NNE 06:40:37 38° E 06:45:39 10° SSE visible
04 Mar 6.3 19:30:26 10° SSW 19:35:25 32° W 19:40:25 10° NW visible
05 Mar 6.4 06:27:50 10° NE 06:32:38 31° E 06:37:24 10° SSE visible
05 Mar 5.9 19:22:12 10° S 19:27:26 39° W 19:32:41 10° NNW visible
06 Mar 6.7 06:20:11 10° NE 06:24:39 25° E 06:29:05 10° SSE visible
06 Mar 5.5 19:14:03 10° S 19:19:28 48° W 19:24:54 10° NNW visible
07 Mar 7.1 06:12:38 10° NE 06:16:39 21° E 06:20:38 10° SSE visible
08 Mar 7.3 06:05:15 10° ENE 06:08:39 17° E 06:12:03 10° SE visible
09 Mar 7.4 05:58:06 10° ENE 06:00:39 13° E 06:03:12 10° SE visible
10 Mar 7.8 05:51:45 10° E 05:52:39 10° E 05:53:33 10° ESE visible
